星链-2096 (STARLINK-2096 )

导读

STARLINK-2096是美国SpaceX公司星链(Starlink)低轨互联网星座的一颗组网卫星,于北京时间2021年1月20日由猎鹰9号运载火箭发射入轨,运行在近地轨道。星链项目旨在为全球提供覆盖偏远区域的高速卫星互联网接入服务,这颗卫星延续了星链V1.0版本设计,搭载氪工质霍尔推进器,具备自主避撞能力,设计寿命约5年,目前仍在轨参与全球星座服务。

基本信息
目录编号:
47376
目录名称:
STARLINK-2096
国际标识:
2021-005AD
轨道中心:
EARTH
卫星名称:
星链-2096
卫星全名:
星链-2096 (STARLINK-2096 )
卫星状态:
在轨 (已飞行1975 天)
发射日期:
2021-01-20 UTC
国别 :
美国 (US)
星等 :
--
轨道信息
数据来源 国际轨道数据 AOE轨道数据
星历时间 2026-06-17T22:41:00+0800
1天前
查看轨道信息
2026-06-17T16:00:00+0800
1天前
查看轨道信息
半长轴 6848.823km 6848.864km
偏心率 0.0001234 0.000114
轨道倾角 53.161° 53.160°
近地点辐角 77.595° 81.298°
升交点赤经 317.687° 318.982°
平近点角 282.519° 182.399°
近地点 469.84km 469.946km
远地点 471.532km 471.508km
周期 94.012分钟 94.013分钟
每日圈数 15.317182 15.317045
详细信息
固有亮度:
5
最大亮度:
2.5
卫星平台:
Starlink V1.0
覆盖范围:
全球
运营商:
太空探索技术公司
运营商所在国:
美国
制造商(研发单位):
太空探索技术公司
制造商所在国:
美国
使用方式:
暂无
卫星简介
星链(Starlink)计划是由太空探索技术公司(SpaceX)提出的一个巨型低轨卫星互联网星座项目,计划在2019年至2024年间在太空搭建由约1.2万颗卫星组成的“星链”网络,其中1584颗将部署在地球上空550千米处的近地轨道,并从2020年开始工作。该卫星仍在工作。
2D轨道图
3D轨道图
轨道高度分析图
轨道倾角分析图
轨道综合分析图
查看轨道综合分析图